FW6537 Weather Reports


time (UTC)temp
C
wind
direction
speed
KPH
gust
KPH
rain 1hr
cm
rain 24hr
cm
rain mn
cm
humidity
%
barometer
mb
20260831073137 17 97 0.0 0.0 0.00 0.00 0.00 93 1018.7
20260831071653 17 97 0.0 1.6 0.00 0.00 0.00 93 1018.5
20260831070129 17 97 0.0 0.0 0.00 0.00 0.00 93 1018.8
20260831064622 17 97 0.0 1.6 0.00 0.00 0.00 93 1018.6
20260831063140 17 97 0.0 0.0 0.00 0.00 0.00 93 1018.8
20260831061643 17 97 0.0 1.6 0.00 0.00 0.00 93 1018.7
20260831060133 17 97 0.0 0.0 0.00 0.00 0.00 93 1018.8
20260831054640 17 97 0.0 1.6 0.00 0.00 0.00 93 1019.0
20260831053136 17 97 0.0 0.0 0.00 0.00 0.00 94 1019.2
20260831051633 17 97 0.0 0.0 0.00 0.00 0.00 94 1019.5
20260831050136 17 97 0.0 0.0 0.00 0.00 0.00 94 1019.5
20260831044622 17 97 0.0 0.0 0.00 0.00 0.00 94 1019.3
20260831043141 17 97 0.0 0.0 0.00 0.00 0.00 95 1019.3
20260831041626 17 98 0.0 0.0 0.00 0.00 0.00 94 1019.3
20260831040200 17 97 0.0 0.0 0.00 0.00 0.00 94 1019.3
20260831034640 17 97 0.0 0.0 0.00 0.00 0.00 94 1019.3
20260831033135 17 97 0.0 0.0 0.00 0.00 0.00 94 1019.3
20260831031635 17 97 0.0 0.0 0.00 0.00 0.00 94 1019.2
20260831024634 17 97 0.0 0.0 0.00 0.00 0.00 93 1019.2
20260831023133 18 97 0.0 0.0 0.00 0.00 0.00 93 1019.1
20260831021632 18 97 0.0 0.0 0.00 0.00 0.00 92 1019.1
20260831020129 18 97 0.0 0.0 0.00 0.00 0.00 92 1019.1
20260831014623 18 97 0.0 0.0 0.00 0.00 0.00 91 1018.9
20260831013141 18 97 0.0 0.0 0.00 0.00 0.00 90 1019.1
20260831011645 19 97 0.0 0.0 0.00 0.00 0.00 90 1019.1
20260831010138 19 97 0.0 0.0 0.00 0.00 0.00 89 1019.1
20260831004635 20 89 0.0 0.0 0.00 0.00 0.00 88 1019.1
20260831003137 20 105 0.0 4.8 0.00 0.00 0.00 88 1018.7
20260831001634 20 84 0.0 0.0 0.00 0.00 0.00 88 1018.3
20260831000149 20 95 0.0 0.0 0.00 0.00 0.00 87 1018.2
20260830234642 20 95 0.0 3.2 0.00 0.00 0.00 87 1018.2
20260830233144 20 88 0.0 0.0 0.00 0.00 0.00 87 1018.2
20260830231708 20 89 0.0 3.2 0.00 0.00 0.00 87 1018.0
20260830230159 20 98 1.6 4.8 0.00 0.00 0.00 87 1018.0
20260830224657 20 97 0.0 0.0 0.00 0.00 0.00 87 1018.1
20260830223135 20 101 0.0 0.0 0.00 0.00 0.00 88 1018.0
20260830221633 20 105 0.0 3.2 0.00 0.00 0.00 88 1018.0
20260830220132 20 99 0.0 1.6 0.00 0.00 0.00 88 1018.0
20260830214645 20 113 0.0 0.0 0.00 0.00 0.00 87 1018.0
20260830213124 20 129 0.0 0.0 0.00 0.00 0.00 88 1018.0
20260830211728 20 129 0.0 0.0 0.00 0.00 0.00 87 1018.0
20260830210145 20 129 0.0 0.0 0.00 0.00 0.00 87 1018.0
20260830204624 20 129 0.0 0.0 0.00 0.00 0.00 87 1018.0
20260830203124 19 130 0.0 0.0 0.00 0.00 0.00 88 1018.1
20260830201623 19 136 0.0 4.8 0.00 0.00 0.00 88 1018.2
20260830200140 20 136 0.0 1.6 0.00 0.00 0.00 87 1018.0
20260830194622 20 123 1.6 3.2 0.00 0.00 0.00 86 1018.1
20260830193137 20 127 0.0 3.2 0.00 0.00 0.00 87 1018.3
20260830191632 20 142 1.6 3.2 0.00 0.00 0.00 85 1018.6
20260830190121 21 138 1.6 9.7 0.00 0.00 0.00 82 1018.8
20260830184644 21 94 0.0 4.8 0.00 0.00 0.00 79 1018.6
20260830183125 21 145 3.2 6.4 0.00 0.00 0.00 77 1018.7
20260830181622 22 105 0.0 6.4 0.00 0.00 0.00 74 1018.5
20260830180140 23 115 1.6 12.9 0.00 0.00 0.00 68 1018.4
20260830174636 23 104 3.2 6.4 0.00 0.00 0.00 65 1018.3
20260830173148 23 135 1.6 4.8 0.00 0.00 0.00 65 1018.2
20260830171624 23 141 0.0 8.0 0.00 0.00 0.00 66 1018.3
20260830170141 23 104 1.6 8.0 0.00 0.00 0.00 65 1018.4
20260830164630 23 100 0.0 8.0 0.00 0.00 0.00 67 1018.3
20260830163130 23 82 1.6 4.8 0.00 0.00 0.00 66 1018.3
20260830161621 23 66 1.6 6.4 0.00 0.00 0.00 65 1018.4
20260830160137 23 70 1.6 6.4 0.00 0.00 0.00 66 1018.3
20260830154628 23 79 1.6 4.8 0.00 0.00 0.00 66 1018.5
20260830153123 23 60 1.6 6.4 0.00 0.00 0.00 67 1018.6
20260830151633 22 103 0.0 4.8 0.00 0.00 0.00 69 1018.6
20260830150126 22 56 0.0 3.2 0.00 0.00 0.00 71 1018.5
20260830144639 22 72 0.0 4.8 0.00 0.00 0.00 70 1018.4
20260830143141 22 58 1.6 4.8 0.00 0.00 0.00 69 1018.2
20260830141653 22 58 0.0 1.6 0.00 0.00 0.00 71 1018.2
20260830140122 21 61 0.0 3.2 0.00 0.00 0.00 72 1018.3
20260830134635 21 56 0.0 0.0 0.00 0.00 0.00 73 1018.5
20260830133129 21 84 0.0 0.0 0.00 0.00 0.00 71 1018.4
20260830131624 21 85 0.0 0.0 0.00 0.00 0.00 71 1018.4
20260830130201 21 85 0.0 0.0 0.00 0.00 0.00 71 1018.5
20260830124639 21 85 0.0 3.2 0.00 0.00 0.00 70 1018.5